Location: Vesunti
(61.5000°N, 22.8333°E)
Time: 22:16:21
(UTC+00:00)

Cosmos 540 Rocket - Pass Details

Date: 17 February 2020
Orbit: 740 x 754 km, 74.1° (Epoch: 05 April)

Event Time Altitude Azimuth Distance (km) Brightness Sun altitude
Exits shadow 05:14:49 -1° 325° (NW) 3,280 6.3 -6.9°
Rises 05:15:00 0° 325° (NW) 3,210 6.3 -6.9°
Reaches altitude 10° 05:17:22 10° 325° (NW) 2,284 5.5 -6.6°
Maximum altitude 05:22:33 80° 239° (WSW) 773 3.5 -6.0°
Drops below altitude 10° 05:27:43 10° 154° (SSE) 2,278 6.6 -5.4°
Sets 05:30:04 0° 153° (SSE) 3,201 7.4 -5.1°
